Weather History for Dublin Airport, Ireland

Change the Weather History Date:

Friday, October 5, 2012

  Actual Average Record
Temperature  
Mean Temperature 48 °F -  
Max Temperature 53 °F 56 °F - ()
Min Temperature 43 °F 45 °F - ()
Degree Days  
Heating Degree Days 17    
Moisture  
Dew Point 44 °F    
Average Humidity 84    
Maximum Humidity 93    
Minimum Humidity 66    
Precipitation  
Precipitation 0.00 in 0.09 in - ()
Sea Level Pressure  
Sea Level Pressure 29.66 in    
Wind  
Wind Speed 12 mph ()    
Max Wind Speed 22 mph    
Max Gust Speed -    
Visibility 6.2 miles    
Events Rain    
T = Trace of Precipitation, MM = Missing Value Source: Averaged Metar Reports

Daily Weather History Graph

Daily Weather History Graph

Search for Another Location

Airport:

Trip Planner

Search our weather history database for the weather conditions in past years. The results will help you decide how hot, cold, wet, or windy it might be!

Date:

Astronomy

Oct. 05, 2012 Rise Set
Actual Time 7:34 AM IST 6:51 PM IST
Civil Twilight 6:59 AM IST 7:26 PM IST
Nautical Twilight 6:19 AM IST 8:06 PM IST
Astronomical Twilight 5:37 AM IST 8:47 PM IST
Moon 9:22 PM IST (10/5) 1:12 PM IST (10/5)
Length of Visible Light 12h 26m
Length of Day
11h 16m
Waning Gibbous, 76% of the Moon is Illuminated
Oct 5
Waning Gibbous
Oct 8
Last Quarter
Oct 15
New
Oct 22
First Quarter
Oct 29
Full

Hourly Weather History & Observations

Time (IST) Temp. Windchill Dew Point Humidity Pressure Visibility Wind Dir Wind Speed Gust Speed Precip Events Conditions
12:00 AM 48.2 °F - 44.6 °F 87% 29.53 in 6.2 mi WSW 10.4 mph - N/A   Mostly Cloudy
12:30 AM 48.2 °F - 44.6 °F 87% 29.53 in 6.2 mi SW 9.2 mph - N/A   Mostly Cloudy
1:00 AM 47 °F - 45 °F 89% 29.56 in 25 mi WSW 8.9 mph - -   Partly Cloudy
1:00 AM 48.2 °F - 44.6 °F 87% 29.53 in 6.2 mi WSW 9.2 mph - N/A   Mostly Cloudy
1:30 AM 48.2 °F - 44.6 °F 87% 29.53 in 6.2 mi WSW 8.1 mph - N/A   Mostly Cloudy
2:00 AM 48.2 °F - 44.6 °F 87% 29.56 in 6.2 mi WSW 10.4 mph - N/A   Mostly Cloudy
2:30 AM 46.4 °F 41.5 °F 44.6 °F 93% 29.53 in 6.2 mi WSW 10.4 mph - N/A   Mostly Cloudy
3:00 AM 46.4 °F 41.1 °F 44.6 °F 93% 29.53 in 6.2 mi WSW 11.5 mph - N/A   Mostly Cloudy
3:30 AM 46.4 °F 41.1 °F 44.6 °F 93% 29.53 in 6.2 mi WSW 11.5 mph - N/A   Mostly Cloudy
4:00 AM 46.4 °F 40.4 °F 44.6 °F 93% 29.53 in 6.2 mi WSW 13.8 mph - N/A   Mostly Cloudy
4:30 AM 46.4 °F 39.5 °F 42.8 °F 87% 29.56 in 6.2 mi West 17.3 mph - N/A   Mostly Cloudy
5:00 AM 46.4 °F 39.0 °F 42.8 °F 87% 29.56 in 6.2 mi West 19.6 mph - N/A   Mostly Cloudy
5:30 AM 44.6 °F 36.6 °F 42.8 °F 93% 29.56 in 6.2 mi West 19.6 mph - N/A   Mostly Cloudy
6:00 AM 44.6 °F 37.2 °F 42.8 °F 93% 29.56 in 6.2 mi West 17.3 mph - N/A   Mostly Cloudy
6:30 AM 44.6 °F 37.4 °F 41.0 °F 87% 29.56 in 6.2 mi WSW 16.1 mph - N/A   Mostly Cloudy
7:00 AM 44 °F - 41 °F 87% 29.60 in 31 mi WSW 17.9 mph - -   Scattered Clouds
7:00 AM 44.6 °F 37.2 °F 41.0 °F 87% 29.56 in 6.2 mi WSW 17.3 mph - N/A   Scattered Clouds
7:30 AM 44.6 °F 36.6 °F 41.0 °F 87% 29.59 in 6.2 mi WSW 19.6 mph - N/A   Scattered Clouds
8:00 AM 44.6 °F 36.9 °F 41.0 °F 87% 29.59 in 6.2 mi WSW 18.4 mph - N/A   Scattered Clouds
8:30 AM 44.6 °F 37.2 °F 41.0 °F 87% 29.62 in 6.2 mi WSW 17.3 mph - N/A   Partly Cloudy
9:00 AM 46.4 °F 39.2 °F 42.8 °F 87% 29.62 in 6.2 mi WSW 18.4 mph - N/A   Partly Cloudy
9:30 AM 46.4 °F 38.5 °F 42.8 °F 87% 29.65 in 6.2 mi West 21.9 mph - N/A   Partly Cloudy
10:00 AM 48.2 °F - 42.8 °F 82% 29.65 in 6.2 mi West 20.7 mph - N/A   Scattered Clouds
10:30 AM 48.2 °F - 42.8 °F 82% 29.68 in 6.2 mi West 16.1 mph - N/A   Scattered Clouds
11:00 AM 50.0 °F - 42.8 °F 76% 29.68 in 6.2 mi WSW 16.1 mph - N/A   Scattered Clouds
11:30 AM 51.8 °F - 44.6 °F 76% 29.68 in 6.2 mi West 18.4 mph - N/A   Scattered Clouds
12:00 PM 50.0 °F - 42.8 °F 76% 29.71 in 6.2 mi West 16.1 mph - N/A   Scattered Clouds
12:30 PM 51.8 °F - 44.6 °F 76% 29.71 in 6.2 mi West 16.1 mph - N/A   Mostly Cloudy
1:00 PM 52 °F - 44 °F 66% 29.73 in 37 mi West 15.7 mph - -   Scattered Clouds
1:00 PM 51.8 °F - 44.6 °F 76% 29.71 in 6.2 mi West 15.0 mph - N/A   Mostly Cloudy
1:30 PM 51.8 °F - 44.6 °F 76% 29.71 in 6.2 mi West 16.1 mph - N/A   Mostly Cloudy
2:00 PM 53.6 °F - 44.6 °F 72% 29.71 in 6.2 mi West 18.4 mph - N/A   Mostly Cloudy
2:30 PM 51.8 °F - 42.8 °F 71% 29.74 in 6.2 mi West 17.3 mph - N/A   Mostly Cloudy
3:00 PM 51.8 °F - 44.6 °F 76% 29.74 in 6.2 mi West 15.0 mph - N/A   Mostly Cloudy
3:30 PM 51.8 °F - 42.8 °F 71% 29.74 in 6.2 mi West 15.0 mph - N/A   Mostly Cloudy
4:00 PM 51.8 °F - 42.8 °F 71% 29.74 in 6.2 mi West 15.0 mph - N/A   Mostly Cloudy
4:30 PM 51.8 °F - 44.6 °F 76% 29.74 in 6.2 mi WSW 11.5 mph - N/A   Mostly Cloudy
5:00 PM 51.8 °F - 44.6 °F 76% 29.74 in 6.2 mi WSW 11.5 mph - N/A Rain Light Rain Showers
5:30 PM 51.8 °F - 44.6 °F 76% 29.74 in 6.2 mi WSW 10.4 mph - N/A   Mostly Cloudy
6:00 PM 50.0 °F - 44.6 °F 82% 29.74 in 6.2 mi WSW 8.1 mph - N/A   Mostly Cloudy
6:30 PM 50.0 °F - 44.6 °F 82% 29.74 in 6.2 mi WSW 8.1 mph - N/A   Mostly Cloudy
7:00 PM 50 °F - 44 °F 75% 29.76 in 37 mi WSW 8.9 mph - - Rain Light Rain Showers
7:00 PM 50.0 °F - 44.6 °F 82% 29.74 in 6.2 mi WSW 9.2 mph - N/A   Mostly Cloudy
7:30 PM 50.0 °F - 44.6 °F 82% 29.74 in 6.2 mi WSW 8.1 mph - N/A   Mostly Cloudy
8:00 PM 50.0 °F - 44.6 °F 82% 29.77 in 6.2 mi WSW 9.2 mph - N/A   Mostly Cloudy
8:30 PM 48.2 °F - 44.6 °F 87% 29.77 in 6.2 mi WSW 8.1 mph - N/A   Mostly Cloudy
9:00 PM 48.2 °F - 44.6 °F 87% 29.77 in 6.2 mi WSW 8.1 mph - N/A   Mostly Cloudy
9:30 PM 48.2 °F - 44.6 °F 87% 29.77 in 6.2 mi WSW 8.1 mph - N/A   Mostly Cloudy
10:00 PM 46.4 °F 43.5 °F 44.6 °F 93% 29.77 in 6.2 mi West 5.8 mph - N/A   Mostly Cloudy
10:30 PM 46.4 °F 42.9 °F 44.6 °F 93% 29.80 in 6.2 mi West 6.9 mph - N/A   Mostly Cloudy
11:00 PM 46.4 °F 42.9 °F 44.6 °F 93% 29.80 in 6.2 mi West 6.9 mph - N/A   Scattered Clouds
11:30 PM 44.6 °F 40.2 °F 42.8 °F 93% 29.80 in 6.2 mi West 8.1 mph - N/A   Partly Cloudy